Temp
76 76 76 75 72 68 68 68 67 68 71 77 76 72 74 74 76 80 79 69 70 69 67 67 67 68 69 71 70 70 71 71 72 72 72 73 73 73
75 75 75 76 74 70 72 70 68 67 65 67 68 69 68 70 72 73 70 68 67 67 66 66 67 67 67 67 68 68 68 69 69 68 68 69 70 71
73 74 74 74 72 73 71 69 67 67 65 65 67 68 67 68 68 68 70 69 68 65 65 64 64 65 65 66 66 67 67 67 67 67 68 68 68 69
71 70 69 70 70 68 66 65 65 66 65 64 65 66 66 65 65 64 65 67 64 64 63 63 62 61 61 62 62 62 62 63 64 65 66 67 68 68
68 67 66 67 66 65 65 64 65 66 65 64 63 65 63 63 61 61 61 61 64 64 63 62 61 60 59 58 58 57 56 57 58 59 60 62 63 65
63 63 63 62 62 62 63 63 63 64 64 64 63 64 62 61 60 58 56 57 56 59 59 60 60 61 59 58 58 57 54 54 54 55 55 56 57 59
59 61 61 62 62 61 60 60 62 62 62 61 61 61 59 60 59 58 56 55 56 58 57 56 56 56 57 58 58 58 56 54 53 53 54 54 55 56
62 60 58 58 59 60 60 60 61 61 61 61 58 57 55 56 57 57 56 55 52 55 55 54 58 54 56 55 57 56 55 55 54 54 54 54 54 55
64 65 66 65 65 65 61 61 59 59 60 59 57 56 57 58 59 58 56 54 53 53 56 53 55 53 55 54 55 54 54 53 53 53 53 53 52 51
65 66 65 64 63 65 65 63 63 62 62 64 61 60 58 56 58 57 54 53 53 53 54 51 52 53 55 56 56 54 53 52 52 51 52 51 50 50
65 65 66 64 55 58 65 62 62 63 58 56 56 56 55 56 59 67 62 62 63 61 60 53 51 51 51 50 53 55 53 52 52 52 52 51 49 49
62 61 54 59 52 53 63 63 59 62 63 63 63 61 61 61 58 63 66 63 61 61 62 64 56 55 50 51 50 51 52 51 51 52 52 51 49 50
63 61 59 50 48 49 52 59 58 58 58 59 61 64 63 61 62 63 63 65 64 61 61 65 62 59 54 50 51 53 53 53 53 53 48 48 49 53
55 58 56 47 46 48 54 49 51 57 62 64 63 62 63 63 63 63 61 63 64 62 63 63 64 64 64 63 62 66 67 68 67 66 67 53 49 50
58 53 49 47 49 52 49 51 56 64 63 62 61 60 61 61 62 63 62 61 61 63 64 63 65 63 64 61 61 63 60 66 67 66 66 67 66 66
56 60 54 53 52 57 60 61 63 62 61 60 60 61 63 63 61 63 63 64 63 62 61 61 61 62 63 63 62 61 62 61 65 66 65 65 66 66
59 62 62 61 60 60 60 60 61 62 60 61 61 60 61 61 60 62 62 62 60 60 61 63 61 61 63 59 60 61 61 63 65 64 61 62 65 66
60 60 60 60 59 60 59 59 60 58 60 60 60 59 59 59 59 60 61 60 59 59 60 61 64 62 62 59 55 61 63 62 64 63 60 59 61 66
61 61 60 60 60 60 60 60 59 59 58 60 59 59 59 59 60 59 59 60 59 59 59 61 61 59 56 56 61 51 59 62 61 61 62 61 60 63
63 62 60 60 60 60 61 60 59 59 59 60 59 59 59 58 59 58 59 57 59 61 61 61 59 58 56 54 55 60 48 58 60 59 59 62 62 53
63 62 62 60 60 60 60 60 60 61 61 61 61 60 59 60 59 60 60 48 49 60 59 59 58 46 59 60 57 61 62 48 52 58 59 59 58 60
63 63 62 61 60 59 59 60 61 58 58 59 60 61 60 60 60 59 60 59 60 61 60 61 61 60 59 57 58 57 62 64 55 51 50 49 57 55
63 63 63 61 61 59 60 60 61 63 60 59 59 59 59 59 59 59 59 60 60 60 60 59 62 63 60 60 54 59 56 60 62 62 63 50 50 50
MSLP
1014.79 1015.12 1015.32 1015.62 1016.03 1016.21 1016.42 1017.05 1017.28 1016.80 1016.33 1016.49 1016.52 1016.98 1016.77 1016.57 1016.07 1015.76 1015.74 1016.37 1016.19 1016.20 1016.27 1016.49 1016.57 1016.72 1016.94 1017.06 1017.24 1017.49 1017.77 1017.98 1018.16 1018.27 1018.51 1018.77 1019.15 1019.60
1014.75 1014.96 1015.25 1015.37 1015.74 1016.15 1016.28 1016.75 1016.84 1016.80 1016.87 1017.00 1017.05 1017.23 1017.02 1016.79 1016.52 1016.08 1016.50 1016.55 1016.42 1016.31 1016.34 1016.44 1016.52 1016.62 1016.72 1016.87 1017.08 1017.31 1017.63 1017.73 1017.85 1018.13 1018.30 1018.65 1018.99 1019.27
1014.85 1014.93 1015.09 1015.50 1015.75 1016.03 1016.33 1016.58 1016.77 1016.83 1016.95 1017.11 1017.28 1017.39 1017.29 1017.27 1017.12 1016.96 1016.92 1016.99 1016.98 1016.72 1016.65 1016.77 1016.83 1016.97 1016.97 1016.96 1017.17 1017.41 1017.63 1017.74 1017.77 1018.00 1018.44 1018.76 1019.16 1019.62
1014.96 1015.19 1015.55 1015.86 1016.07 1016.35 1016.61 1016.69 1016.73 1016.94 1017.04 1016.89 1017.21 1017.32 1017.53 1017.80 1017.85 1017.77 1017.65 1017.65 1017.70 1017.59 1017.41 1017.48 1017.53 1017.56 1017.72 1017.76 1017.95 1018.07 1018.21 1018.50 1018.64 1018.80 1019.05 1019.35 1019.78 1020.21
1015.67 1015.91 1016.18 1016.25 1016.32 1016.52 1016.57 1016.64 1016.65 1016.94 1017.10 1017.16 1017.34 1017.37 1017.75 1018.08 1018.33 1018.52 1018.75 1018.54 1018.30 1018.28 1018.40 1018.27 1018.35 1018.51 1018.64 1018.92 1019.18 1019.25 1019.34 1019.57 1019.95 1020.08 1020.51 1020.93 1021.15 1021.52
1016.36 1016.44 1016.62 1016.89 1016.90 1016.87 1017.05 1017.24 1017.21 1017.25 1017.24 1017.39 1017.49 1017.67 1018.03 1018.42 1018.45 1018.68 1019.11 1019.06 1019.27 1019.32 1019.48 1019.43 1019.37 1019.49 1019.70 1019.88 1020.13 1020.44 1020.78 1021.05 1021.11 1021.40 1021.80 1022.26 1022.62 1022.76
1017.28 1017.38 1017.50 1017.72 1017.80 1017.64 1017.68 1017.80 1017.71 1017.67 1017.67 1017.79 1017.92 1018.19 1018.54 1018.57 1018.68 1018.99 1019.42 1019.78 1019.98 1020.13 1020.27 1020.39 1020.39 1020.48 1020.77 1020.81 1021.29 1021.10 1021.99 1021.85 1022.38 1022.74 1022.90 1023.17 1023.50 1023.46
1018.05 1018.32 1018.50 1018.59 1018.60 1018.68 1018.64 1018.51 1018.32 1018.24 1018.12 1018.23 1018.82 1019.07 1019.49 1019.37 1019.34 1019.25 1019.58 1019.94 1020.39 1020.77 1020.96 1021.32 1021.28 1021.42 1021.48 1021.64 1021.97 1022.38 1022.34 1022.50 1023.02 1022.86 1023.77 1024.18 1023.90 1023.76
1018.57 1018.62 1018.72 1019.08 1019.05 1019.26 1019.37 1019.16 1019.13 1018.99 1018.88 1019.02 1019.41 1019.79 1019.94 1019.96 1019.63 1019.67 1019.91 1020.22 1020.70 1021.13 1020.97 1021.46 1021.64 1021.75 1021.83 1022.22 1022.45 1022.57 1022.68 1023.05 1023.32 1023.77 1024.20 1024.45 1024.33 1024.56
1019.19 1019.34 1019.49 1019.74 1019.90 1019.80 1019.84 1019.88 1019.96 1019.97 1019.89 1019.79 1020.07 1020.39 1020.39 1020.41 1020.11 1020.32 1020.65 1020.91 1021.25 1021.51 1021.33 1021.56 1021.96 1022.04 1022.20 1022.51 1022.67 1022.97 1023.01 1023.53 1023.98 1024.11 1024.34 1024.90 1024.99 1024.73
1019.96 1020.15 1020.25 1020.60 1020.93 1020.71 1020.47 1020.58 1020.64 1020.72 1021.19 1021.11 1021.18 1021.15 1021.05 1020.93 1020.61 1020.05 1020.28 1020.05 1020.33 1020.96 1021.37 1021.61 1022.26 1022.50 1022.79 1023.09 1023.11 1023.12 1023.38 1023.73 1023.98 1024.15 1024.51 1024.75 1024.76 1024.82
1020.76 1021.15 1021.44 1021.53 1021.67 1021.38 1021.19 1021.12 1021.24 1021.24 1021.09 1021.13 1021.25 1021.33 1021.33 1021.37 1021.38 1020.85 1020.38 1020.11 1020.33 1020.47 1021.44 1021.18 1022.10 1022.47 1022.95 1023.51 1023.55 1023.47 1023.53 1023.86 1024.03 1024.03 1024.10 1024.34 1024.59 1024.83
1020.85 1021.61 1022.21 1022.34 1022.34 1022.31 1021.97 1022.04 1022.05 1022.04 1021.91 1021.83 1021.61 1021.70 1021.81 1021.88 1021.83 1021.77 1021.47 1020.77 1020.71 1021.10 1021.99 1021.58 1021.87 1022.24 1022.57 1023.08 1023.36 1023.39 1023.42 1023.53 1023.61 1023.66 1023.73 1023.74 1023.98 1024.19
1022.08 1022.62 1023.04 1023.06 1023.05 1022.92 1022.61 1022.94 1022.76 1022.37 1021.98 1021.76 1021.82 1021.98 1021.92 1022.04 1022.17 1022.29 1022.35 1022.08 1021.93 1021.94 1022.17 1021.93 1021.52 1021.49 1021.50 1021.64 1021.65 1022.00 1022.11 1022.25 1022.22 1022.19 1022.32 1023.26 1023.45 1023.44
1022.67 1023.25 1023.51 1023.40 1023.26 1023.32 1023.50 1023.09 1022.44 1022.20 1022.21 1022.09 1022.34 1022.59 1022.76 1022.85 1022.65 1022.49 1022.52 1022.62 1022.62 1022.52 1022.56 1022.47 1021.89 1022.18 1021.81 1021.84 1021.91 1021.92 1022.24 1021.95 1022.28 1022.20 1022.28 1022.24 1022.29 1022.39
1023.29 1023.21 1023.64 1023.67 1023.70 1023.44 1023.33 1022.88 1022.85 1022.92 1022.84 1022.76 1022.91 1023.11 1023.02 1022.86 1022.81 1022.79 1022.50 1022.36 1022.16 1022.56 1023.15 1023.14 1022.92 1022.62 1022.11 1022.24 1022.20 1021.98 1022.11 1021.87 1022.17 1022.21 1022.25 1022.17 1022.28 1022.29
1023.28 1023.50 1023.66 1023.37 1023.60 1023.51 1023.61 1023.50 1023.37 1023.27 1023.27 1023.26 1023.30 1023.34 1023.33 1023.20 1023.26 1023.26 1023.11 1022.80 1022.59 1022.64 1022.61 1022.79 1023.19 1023.07 1022.70 1022.86 1022.23 1022.16 1022.19 1022.11 1022.29 1022.35 1022.56 1021.91 1021.86 1022.11
1023.64 1023.29 1023.60 1023.61 1023.69 1023.60 1023.51 1023.64 1023.63 1023.78 1023.71 1023.67 1023.73 1023.75 1023.70 1023.62 1023.53 1023.58 1023.47 1023.24 1023.03 1023.05 1022.89 1022.93 1022.73 1022.45 1022.39 1022.95 1023.21 1022.43 1022.35 1022.30 1022.39 1022.51 1022.67 1022.07 1021.48 1021.51
1023.37 1023.49 1023.67 1023.74 1023.86 1023.92 1023.76 1023.67 1023.81 1024.09 1024.28 1024.03 1024.05 1024.19 1024.09 1024.07 1023.86 1023.79 1023.66 1023.52 1023.33 1023.26 1023.26 1023.22 1022.94 1022.76 1022.33 1022.14 1022.80 1023.42 1022.70 1022.40 1022.42 1022.14 1022.11 1021.93 1021.67 1021.42
1023.35 1023.50 1023.64 1023.86 1024.03 1024.10 1024.04 1023.92 1024.05 1024.27 1024.22 1024.25 1024.36 1024.42 1024.43 1024.32 1024.12 1024.08 1024.02 1024.02 1023.75 1023.57 1023.32 1023.39 1023.44 1023.54 1023.21 1023.09 1022.94 1022.79 1023.45 1023.11 1022.41 1022.13 1021.88 1021.76 1021.68 1022.00
1023.31 1023.56 1023.71 1023.91 1024.03 1024.15 1024.18 1024.22 1024.19 1024.08 1024.27 1024.41 1024.52 1024.63 1024.67 1024.48 1024.39 1024.30 1024.13 1024.74 1024.55 1023.78 1023.41 1023.43 1024.03 1025.06 1023.91 1023.61 1022.80 1022.09 1022.30 1023.31 1023.28 1022.75 1022.22 1021.96 1021.51 1021.23
1023.15 1023.23 1023.57 1023.84 1023.97 1024.15 1024.16 1024.09 1024.00 1024.22 1024.33 1024.40 1024.52 1024.70 1024.77 1024.67 1024.41 1024.36 1024.17 1024.09 1023.99 1023.74 1023.66 1023.70 1023.78 1023.59 1023.34 1022.96 1022.34 1022.31 1021.99 1022.05 1022.64 1022.84 1022.95 1023.08 1022.41 1021.70
1023.01 1023.08 1023.22 1023.45 1023.69 1023.87 1023.81 1023.85 1023.71 1023.75 1024.03 1024.24 1024.46 1024.63 1024.69 1024.43 1024.52 1024.41 1024.23 1024.05 1023.88 1023.76 1023.68 1023.40 1023.27 1023.23 1022.95 1022.75 1022.78 1022.14 1022.26 1021.89 1021.72 1021.68 1021.53 1022.45 1022.55 1022.46
Wind_Speed
8 7 7 5 5 4 3 4 8 7 4 2 1 3 5 5 6 6 6 3 5 2 4 7 10 11 12 13 11 11 11 10 11 13 13 14 15 18
4 6 7 5 6 4 6 6 3 3 3 1 1 2 4 3 6 4 7 7 12 9 8 5 2 4 5 6 7 7 9 9 8 8 6 5 8 11
4 6 7 7 6 6 5 3 2 1 2 1 1 1 2 4 5 6 6 6 7 14 13 13 11 7 2 4 4 5 7 6 7 11 12 15 15 15
1 2 3 2 4 2 2 3 3 1 2 4 1 1 2 4 5 6 6 7 7 15 16 16 15 15 14 13 11 12 13 13 13 14 16 16 18 17
5 6 6 2 2 1 1 1 2 2 2 1 1 1 3 2 5 6 7 6 8 14 17 19 19 19 20 20 18 18 17 18 17 18 18 16 15 15
8 8 8 7 6 5 4 4 3 2 1 1 1 0 2 3 2 2 3 6 6 7 14 17 18 21 21 21 20 21 19 16 17 17 15 13 12 11
10 9 9 13 16 11 3 4 3 2 2 3 2 3 4 2 3 2 3 5 7 5 6 7 6 7 8 15 14 19 14 15 14 12 11 9 7 8
10 9 7 11 15 17 16 16 8 3 3 2 3 4 3 2 2 2 4 2 3 2 3 5 5 6 6 7 15 14 15 16 12 13 8 5 6 7
9 9 10 8 11 11 12 15 20 21 18 7 8 6 5 6 4 3 3 3 2 1 2 3 1 4 5 7 13 14 15 14 14 12 10 8 8 7
11 11 10 10 10 10 12 15 16 15 13 10 11 8 5 3 6 3 4 5 4 3 3 3 3 3 4 4 11 10 12 10 7 6 4 3 2 4
11 10 10 10 8 6 11 11 12 12 12 14 14 14 17 17 10 2 3 2 5 4 3 2 2 3 3 4 4 9 10 9 9 9 8 5 4 1
10 11 15 11 10 9 8 8 9 9 8 9 9 10 12 12 15 10 6 5 2 4 5 1 3 1 3 2 2 2 3 5 6 8 11 10 10 5
8 7 7 11 11 11 8 7 8 6 9 7 6 7 8 8 7 8 7 6 5 6 5 2 2 2 2 2 1 2 2 3 3 5 8 12 11 12
8 6 7 12 13 11 9 9 8 6 5 6 7 7 7 7 7 7 7 8 7 7 6 5 4 4 2 2 3 2 1 1 2 3 3 6 6 5
7 10 10 8 8 12 11 7 5 6 6 6 7 6 6 6 4 3 5 4 8 6 6 6 5 4 4 4 3 3 5 2 1 2 3 2 3 4
10 7 10 11 10 7 6 7 7 7 6 6 6 5 5 5 6 5 5 4 4 5 6 6 5 3 2 4 4 4 4 4 1 1 3 3 3 4
7 5 5 6 6 6 6 5 5 5 6 5 5 5 5 5 5 5 5 4 4 4 3 3 3 2 4 4 5 5 4 2 1 1 5 4 3 3
4 5 4 4 4 4 4 4 4 5 5 5 5 5 5 5 4 4 4 4 4 4 4 3 1 3 4 6 4 4 1 2 1 2 5 6 5 1
5 4 4 3 3 3 3 3 4 5 3 4 5 4 4 4 2 4 4 3 3 3 4 4 4 4 4 3 3 3 5 3 3 4 4 5 5 4
4 4 4 3 3 2 2 3 4 4 3 3 4 4 4 4 3 3 3 4 3 1 1 2 4 4 5 6 5 5 7 6 5 5 5 4 6 5
3 3 3 4 3 3 2 2 1 2 1 2 2 2 3 3 2 2 2 1 4 2 2 3 5 2 5 4 6 2 3 7 5 7 5 6 6 5
4 4 4 4 4 4 3 3 2 4 4 4 2 1 1 2 2 2 2 3 1 1 2 3 2 3 3 4 3 2 2 2 9 9 11 8 6 5
4 4 4 6 6 5 5 4 3 1 3 4 4 4 2 3 2 2 3 2 2 2 2 4 2 2 3 2 3 4 1 4 4 3 4 10 9 11
Wind_Direction
221 219 230 227 207 182 150 204 242 252 260 115 348 28 348 328 301 252 245 53 87 90 214 229 230 227 235 219 225 218 225 224 229 219 212 212 207 206
230 222 229 220 203 195 196 193 195 206 214 141 42 1 354 351 6 64 86 74 56 63 50 41 309 259 248 250 223 232 234 226 221 199 158 170 213 202
219 229 227 213 199 195 183 162 170 158 195 130 189 347 47 46 37 52 53 48 45 49 59 51 49 35 301 208 182 166 162 157 158 143 128 120 117 114
243 200 158 154 175 144 190 192 196 207 189 209 213 150 78 51 50 54 61 61 53 51 58 60 59 61 55 58 66 77 81 74 81 94 103 106 107 111
70 75 57 48 110 133 115 127 155 153 200 140 111 54 70 96 69 44 46 49 53 57 59 64 70 69 68 65 61 63 67 67 64 62 61 66 72 84
60 62 62 58 52 47 52 39 22 63 53 125 123 80 116 72 80 97 62 41 49 48 54 63 69 74 75 73 73 71 58 62 69 67 69 68 76 90
56 57 63 71 66 61 55 31 25 35 39 43 47 55 24 38 14 79 82 83 59 53 59 52 65 66 68 74 76 82 78 91 86 94 93 88 101 108
78 76 70 64 67 65 64 60 53 29 70 74 47 64 36 10 350 113 131 164 104 32 83 65 62 74 74 81 85 86 92 80 78 81 86 105 95 104
79 79 78 72 74 78 74 71 60 56 57 64 72 43 39 3 350 72 64 68 84 48 127 95 84 101 98 99 97 98 90 88 83 77 64 46 45 50
74 76 74 70 59 77 79 73 66 60 59 69 68 61 53 17 49 60 88 88 78 47 351 90 5 48 84 116 109 104 104 107 109 117 122 166 108 110
73 65 77 76 48 54 85 85 83 85 75 70 71 65 56 46 30 126 114 207 113 73 61 95 41 75 47 39 37 127 132 142 150 146 154 161 143 136
77 70 54 69 50 23 82 94 86 75 75 71 61 55 50 60 40 41 39 63 79 143 49 35 114 143 122 73 61 67 118 136 162 181 190 203 197 213
99 88 69 61 62 54 55 84 85 90 86 79 80 72 63 56 46 41 30 29 64 83 56 118 133 128 83 127 147 166 167 176 203 216 230 218 221 223
102 88 80 66 59 51 77 74 81 105 101 75 62 51 44 39 40 35 41 43 49 48 51 3 70 41 57 101 68 122 141 8 239 197 197 133 169 194
88 89 83 77 98 84 57 57 84 72 66 68 61 51 38 37 32 68 82 88 77 61 59 48 52 84 51 47 37 20 321 117 254 223 208 255 317 303
119 92 87 87 77 92 95 77 67 61 64 67 63 51 43 41 49 29 46 42 59 92 75 52 52 357 35 45 349 359 354 303 140 208 302 286 297 295
128 130 108 100 98 93 85 78 79 77 73 64 55 46 43 47 55 36 28 33 42 25 59 86 47 360 5 338 333 350 340 246 224 24 278 303 275 320
147 127 114 100 93 91 87 89 83 85 77 70 55 40 38 40 39 45 27 22 22 26 11 10 313 212 194 141 349 350 159 327 328 258 276 288 294 186
130 126 121 112 112 96 85 88 94 88 94 72 53 51 45 59 13 40 23 23 38 40 66 37 21 355 334 359 104 243 325 340 319 262 258 275 314 323
133 143 145 144 144 128 131 122 119 141 118 92 67 59 48 26 28 24 20 5 7 42 102 22 9 1 341 358 333 347 190 293 309 310 302 255 267 269
171 186 175 170 175 160 148 167 216 173 141 169 102 50 33 360 34 357 38 333 301 311 330 21 32 274 288 276 253 278 102 197 265 305 308 288 305 314
220 226 200 201 195 201 193 197 202 193 201 216 207 214 340 341 345 325 341 328 256 307 339 319 327 303 266 277 315 318 299 21 183 217 243 268 311 305
234 239 229 215 214 208 215 223 230 223 213 222 225 228 245 300 300 266 279 268 223 269 322 303 302 257 296 290 315 311 247 281 352 335 116 197 231 252